DW8482 Tortoreto Alto IT current weather conditions

sailwx.info

Wind from 306

Air temperature 22.8° C
Dewpoint 20.3° C

Last reported at 2014-Sep-20 08:52 UTC.
Time now 2014-Sep-20 10:05 UTC

Location: N 42°48' E 013°54'.
View on Google Maps.

See reports from other nearby stations

  
Tides and Currents Weather Stations Pressure Air Temp Water Temp Dewpoint Dewpoint Depression Visibility Wind Speed Wind Dir Waves Ship Positions
date/time (UTC)wind fromknots sea level pressurealtimeterstation pressurevisibilityair tempwater tempwave heightnotes
2014-Sep-20 08:52 306 22.8
2014-Sep-20 08:47 279 22.2
2014-Sep-20 08:42 279 22.2
2014-Sep-20 08:37 236 21.7
2014-Sep-20 08:32 236 2 gusting 3 21.7
2014-Sep-20 08:27 207 21.1
2014-Sep-20 08:22 236 21.1
2014-Sep-20 08:17 010 21.1
2014-Sep-20 08:07 338 1 gusting 5 20.6
2014-Sep-20 08:02 005 20.6
2014-Sep-20 07:57 355 0 gusting 7 20.6
2014-Sep-20 07:52 020 3 gusting 7 20.6
2014-Sep-20 07:47 005 5 gusting 13 20.6
2014-Sep-20 07:42 013 6 gusting 13 20.6
2014-Sep-20 07:37 355 10 gusting 10 20.6
2014-Sep-20 07:32 026 7 gusting 13 20.0
2014-Sep-20 07:27 346 8 gusting 13 20.0
2014-Sep-20 07:22 312 6 gusting 13 20.0
2014-Sep-20 07:17 005 11 gusting 13 20.0
2014-Sep-20 07:12 20.0
2014-Sep-20 07:07 257 3 gusting 4 20.0
2014-Sep-20 07:02 269 20.0
2014-Sep-20 06:57 267 3 gusting 6 20.0
2014-Sep-20 06:52 278 4 gusting 6 19.4
2014-Sep-20 06:47 303 19.4
2014-Sep-19 21:12 252 2 gusting 3 19.4
2014-Sep-19 21:07 241 2 gusting 4 19.4
2014-Sep-19 21:02 268 1 gusting 3 19.4
2014-Sep-19 20:57 268 19.4
2014-Sep-19 20:52 268 19.4
2014-Sep-19 20:47 257 19.4
2014-Sep-19 20:43 265 4 gusting 4 19.4
2014-Sep-19 20:37 265 2 gusting 4 19.4
2014-Sep-19 20:33 265 3 gusting 4 19.4
2014-Sep-19 20:28 265 0 gusting 4 19.4
2014-Sep-19 20:22 265 3 gusting 4 19.4
2014-Sep-19 20:17 265 3 gusting 4 19.4
2014-Sep-19 20:12 265 3 gusting 4 19.4
2014-Sep-19 20:07 265 2 gusting 4 19.4
2014-Sep-19 20:02 256 2 gusting 5 19.4
2014-Sep-19 19:57 269 0 gusting 3 20.0
2014-Sep-19 19:52 319 3 gusting 3 19.4
2014-Sep-19 19:47 342 20.0
2014-Sep-19 19:43 215 20.0
2014-Sep-19 19:37 161 20.0
2014-Sep-19 19:32 161 20.0
2014-Sep-19 19:27 161 20.0
2014-Sep-19 19:23 126 1 gusting 2 20.0
2014-Sep-19 19:17 126 20.0
2014-Sep-19 19:12 126 20.0
2014-Sep-19 19:07 126 20.0
2014-Sep-19 19:02 126 20.0
2014-Sep-19 18:57 126 20.0
2014-Sep-19 18:52 128 20.0
2014-Sep-19 18:47 128 19.4
2014-Sep-19 18:42 128 20.0
2014-Sep-19 18:37 128 20.0
2014-Sep-19 18:32 090 2 gusting 2 20.0
2014-Sep-19 18:27 088 20.0
2014-Sep-19 18:22 088 20.0
2014-Sep-19 18:17 084 1 gusting 2 20.0
2014-Sep-19 18:12 064 20.0
2014-Sep-19 18:07 064 20.0
2014-Sep-19 18:02 067 0 gusting 2 20.0
2014-Sep-19 17:58 131 0 gusting 4 20.0
2014-Sep-19 17:48 084 2 gusting 2 20.0
2014-Sep-19 17:42 082 2 gusting 3 20.0
2014-Sep-19 17:37 061 0 gusting 3 20.0
2014-Sep-19 17:32 113 20.0
2014-Sep-19 17:27 115 20.0
2014-Sep-19 17:22 123 20.0
2014-Sep-19 17:18 140 2 gusting 5 20.0
2014-Sep-19 17:12 129 3 gusting 4 20.6
2014-Sep-19 17:07 146 20.6
2014-Sep-19 17:02 129 1 gusting 4 20.6
2014-Sep-19 16:57 141 20.6
2014-Sep-19 16:52 136 0 gusting 3 20.6
2014-Sep-19 16:47 133 0 gusting 4 20.6
2014-Sep-19 16:42 073 0 gusting 1 20.6
2014-Sep-19 16:37 130 20.6
2014-Sep-19 16:33 120 21.1
2014-Sep-19 16:27 118 0 gusting 3 21.1
2014-Sep-19 16:22 086 21.1
2014-Sep-19 16:17 132 3 gusting 4 21.1
2014-Sep-19 16:12 094 0 gusting 5 21.1
2014-Sep-19 16:07 091 2 gusting 4 21.1
2014-Sep-19 16:02 068 3 gusting 3 21.1
2014-Sep-19 15:57 090 0 gusting 5 21.1
2014-Sep-19 15:52 065 2 gusting 6 21.7
2014-Sep-19 15:47 070 4 gusting 6 21.7
2014-Sep-19 15:42 078 1 gusting 3 21.1
2014-Sep-19 15:37 059 0 gusting 3 21.1
2014-Sep-19 15:32 068 3 gusting 4 21.1
2014-Sep-19 15:27 080 0 gusting 5 21.7
2014-Sep-19 15:22 065 3 gusting 6 21.7
2014-Sep-19 15:17 086 2 gusting 7 22.2
2014-Sep-19 15:12 069 4 gusting 6 21.7
2014-Sep-19 15:07 044 4 gusting 6 22.2
2014-Sep-19 15:02 049 4 gusting 6 22.2
2014-Sep-19 14:57 037 4 gusting 6 22.2
2014-Sep-19 14:52 026 6 gusting 6 22.2
2014-Sep-19 14:47 047 4 gusting 7 22.2
2014-Sep-19 14:42 076 6 gusting 7 22.2
2014-Sep-19 14:37 072 3 gusting 6 22.2
2014-Sep-19 14:32 022 3 gusting 6 21.7
2014-Sep-19 14:27 064 2 gusting 6 21.7
2014-Sep-19 14:23 039 3 gusting 6 21.7
2014-Sep-19 14:17 051 4 gusting 6 21.7
2014-Sep-19 14:12 030 5 gusting 7 21.7
2014-Sep-19 14:07 061 4 gusting 6 21.7
2014-Sep-19 14:02 034 4 gusting 6 21.7
2014-Sep-19 13:57 046 2 gusting 6 21.7
2014-Sep-19 13:53 056 5 gusting 6 21.7
2014-Sep-19 13:47 057 6 gusting 7 21.7
2014-Sep-19 13:37 071 6 gusting 6 22.2
2014-Sep-19 13:32 053 3 gusting 6 22.2
2014-Sep-19 13:27 067 3 gusting 6 22.2
2014-Sep-19 13:22 051 6 gusting 7 22.2
2014-Sep-19 13:13 062 7 gusting 9 22.2
2014-Sep-19 13:02 036 4 gusting 7 22.2
2014-Sep-19 12:57 049 6 gusting 6 22.2
2014-Sep-19 12:52 062 6 gusting 8 22.2
2014-Sep-19 12:47 053 7 gusting 7 22.2
2014-Sep-19 12:42 090 6 gusting 10 22.2
2014-Sep-19 12:37 035 4 gusting 10 22.8
2014-Sep-19 12:32 121 1 gusting 7 22.2
2014-Sep-19 12:27 080 6 gusting 8 22.8
2014-Sep-19 12:22 052 4 gusting 7 23.3
2014-Sep-19 12:17 040 2 gusting 7 22.2
2014-Sep-19 12:12 082 6 gusting 7 22.2
2014-Sep-19 12:07 086 6 gusting 9 22.2
2014-Sep-19 12:02 071 6 gusting 7 22.2
2014-Sep-19 11:57 069 4 gusting 6 22.8
2014-Sep-19 11:52 042 1 gusting 6 22.8
2014-Sep-19 11:47 067 2 gusting 9 22.8
2014-Sep-19 11:42 056 5 gusting 8 22.2
2014-Sep-19 11:32 085 2 gusting 7 21.7
2014-Sep-19 11:27 059 4 gusting 6 21.7
2014-Sep-19 11:22 040 2 gusting 5 21.7
2014-Sep-19 11:17 055 0 gusting 3 21.7
2014-Sep-19 11:12 088 21.1
2014-Sep-19 11:07 040 2 gusting 5 21.7
2014-Sep-19 11:02 074 2 gusting 6 21.7
2014-Sep-19 10:57 059 2 gusting 6 21.7
2014-Sep-19 10:52 053 3 gusting 5 21.1
2014-Sep-19 10:47 069 3 gusting 5 21.1
2014-Sep-19 10:42 057 3 gusting 4 21.1
2014-Sep-19 10:37 066 1 gusting 6 21.7
2014-Sep-19 10:32 066 4 gusting 6 21.7
2014-Sep-19 10:27 045 1 gusting 6 21.1
2014-Sep-19 10:22 049 4 gusting 6 21.1
2014-Sep-19 10:17 073 4 gusting 6 21.7
2014-Sep-19 10:12 051 5 gusting 6 21.7
2014-Sep-19 10:07 053 3 gusting 5 21.7
2014-Sep-19 10:02 052 4 gusting 6 21.7
2014-Sep-19 09:52 074 21.1
2014-Sep-19 09:47 055 1 gusting 5 21.1
2014-Sep-19 09:42 052 3 gusting 6 21.1
2014-Sep-19 09:37 065 4 gusting 6 21.1
2014-Sep-19 09:32 055 0 gusting 8 21.1
2014-Sep-19 09:27 059 4 gusting 6 21.1
2014-Sep-19 09:22 078 2 gusting 6 21.1
2014-Sep-19 09:17 057 6 gusting 6 21.7
2014-Sep-19 09:12 071 6 gusting 7 21.7
2014-Sep-19 09:07 069 6 gusting 6 21.7
2014-Sep-19 09:02 074 4 gusting 7 21.7
2014-Sep-19 08:57 034 3 gusting 6 21.7
2014-Sep-19 08:52 057 6 gusting 6 21.7
2014-Sep-19 08:47 022 2 gusting 3 21.7
2014-Sep-19 08:42 304 21.1
2014-Sep-19 08:37 005 21.1
2014-Sep-19 08:32 005 21.1
2014-Sep-19 08:27 024 21.1
2014-Sep-19 08:22 275 21.1
2014-Sep-19 08:17 275 20.6
2014-Sep-19 08:12 275 20.6
2014-Sep-19 08:07 275 20.6
2014-Sep-19 08:02 275 21.1
2014-Sep-19 07:57 244 21.1
2014-Sep-19 07:52 244 0 gusting 2 21.1
2014-Sep-19 07:47 244 0 gusting 2 21.1
2014-Sep-19 07:42 244 21.1
2014-Sep-19 07:37 244 21.1
2014-Sep-19 07:32 244 21.1
2014-Sep-19 07:27 038 21.1
2014-Sep-19 07:22 044 21.1
2014-Sep-19 07:17 044 21.1
2014-Sep-19 07:12 044 0 gusting 1 20.6
2014-Sep-19 07:07 254 20.0
2014-Sep-19 07:02 254 20.0
2014-Sep-19 06:58 254 19.4
2014-Sep-19 06:52 254 19.4
2014-Sep-19 06:47 254 19.4
2014-Sep-19 06:42 254 19.4
2014-Sep-19 06:37 254 18.9
2014-Sep-19 06:32 254 18.9
2014-Sep-19 06:27 254 18.9
2014-Sep-19 06:22 254 2 gusting 3 18.9
2014-Sep-19 06:17 254 2 gusting 2 18.9
2014-Sep-19 06:12 254 2 gusting 2 18.9
2014-Sep-19 06:07 254 2 gusting 3 18.9
2014-Sep-19 06:02 254 1 gusting 2 18.9
2014-Sep-19 05:57 254 1 gusting 2 18.3
2014-Sep-19 05:52 254 18.3
2014-Sep-19 05:47 254 1 gusting 3 18.3
2014-Sep-19 05:42 254 2 gusting 4 18.3
2014-Sep-19 05:37 254 4 gusting 5 18.3
2014-Sep-19 05:32 254 3 gusting 3 18.3
2014-Sep-19 05:27 254 2 gusting 3 18.3
2014-Sep-19 05:22 254 2 gusting 3 18.3
2014-Sep-19 05:17 254 3 gusting 4 18.3
2014-Sep-19 05:12 251 2 gusting 4 18.3
2014-Sep-19 05:07 251 2 gusting 3 18.3
2014-Sep-19 05:02 251 1 gusting 2 18.3
2014-Sep-19 04:57 251 1 gusting 2 18.3
2014-Sep-19 04:52 251 0 gusting 3 18.3
2014-Sep-19 04:47 251 3 gusting 3 18.3
2014-Sep-19 04:42 251 18.3
2014-Sep-19 04:37 251 2 gusting 3 18.3
2014-Sep-19 04:32 251 0 gusting 5 18.3
2014-Sep-19 04:27 246 3 gusting 5 18.3
2014-Sep-19 04:22 259 2 gusting 5 18.3
2014-Sep-19 04:17 247 2 gusting 4 18.3
2014-Sep-19 04:12 247 4 gusting 6 18.3
2014-Sep-19 04:07 249 18.3
2014-Sep-19 04:02 251 2 gusting 5 18.3
2014-Sep-19 03:57 250 2 gusting 4 18.3
2014-Sep-19 03:52 251 4 gusting 4 18.3
2014-Sep-19 03:47 251 2 gusting 4 18.3
2014-Sep-19 03:42 251 3 gusting 4 18.9
2014-Sep-19 03:37 250 2 gusting 3 18.9
2014-Sep-19 03:32 250 3 gusting 4 18.9
2014-Sep-19 03:27 250 3 gusting 3 18.9
2014-Sep-19 03:22 250 18.9
2014-Sep-19 03:17 251 18.9
2014-Sep-19 03:12 250 1 gusting 2 18.3
2014-Sep-19 03:07 250 2 gusting 4 18.3
2014-Sep-19 03:02 250 3 gusting 4 18.9
2014-Sep-19 02:57 250 2 gusting 4 18.9
2014-Sep-19 02:52 255 4 gusting 5 18.9
2014-Sep-19 02:47 256 3 gusting 5 19.4
2014-Sep-19 02:42 223 2 gusting 2 19.4
2014-Sep-19 02:37 223 1 gusting 2 19.4
2014-Sep-19 02:32 223 19.4
2014-Sep-19 02:27 223 19.4
2014-Sep-19 02:22 223 0 gusting 2 19.4
2014-Sep-19 02:17 223 19.4
2014-Sep-19 02:12 223 19.4
2014-Sep-19 02:07 223 19.4
2014-Sep-19 02:02 223 19.4
2014-Sep-19 01:57 223 19.4
2014-Sep-19 01:52 223 19.4
2014-Sep-19 01:47 223 1 gusting 2 18.9
2014-Sep-19 01:42 223 18.9
2014-Sep-19 01:37 223 18.9
2014-Sep-19 01:32 223 18.9
2014-Sep-19 01:27 223 18.9
2014-Sep-19 01:22 223 18.9
2014-Sep-19 01:17 223 18.9
2014-Sep-19 01:12 223 18.9
2014-Sep-19 01:07 223 18.9
2014-Sep-19 01:02 223 18.9
2014-Sep-19 00:57 223 18.9
2014-Sep-19 00:52 223 18.9
2014-Sep-19 00:47 223 18.9
2014-Sep-19 00:42 223 18.9
2014-Sep-19 00:37 223 1 gusting 1 18.9
2014-Sep-19 00:32 223 18.9
2014-Sep-19 00:27 223 18.9
2014-Sep-19 00:22 223 18.9
2014-Sep-19 00:17 223 18.9
2014-Sep-19 00:12 223 18.9
2014-Sep-19 00:07 223 18.9
2014-Sep-19 00:02 223 18.9
2014-Sep-18 23:57 223 18.9
2014-Sep-18 23:52 223 18.9
2014-Sep-18 23:47 223 18.9
2014-Sep-18 23:42 223 18.9
2014-Sep-18 23:37 223 1 gusting 3 18.9
2014-Sep-18 23:32 223 18.9
2014-Sep-18 23:27 223 18.9
2014-Sep-18 23:22 223 18.9
2014-Sep-18 23:17 223 18.9
2014-Sep-18 23:12 223 18.9
2014-Sep-18 23:07 221 18.9
2014-Sep-18 23:02 246 0 gusting 3 18.9
2014-Sep-18 22:57 219 18.9
2014-Sep-18 22:52 182 18.9
2014-Sep-18 22:47 250 18.9
2014-Sep-18 22:42 228 3 gusting 2 18.9
2014-Sep-18 22:37 053 18.9
2014-Sep-18 22:32 061 18.9
2014-Sep-18 22:27 077 18.9
2014-Sep-18 22:22 081 18.9
2014-Sep-18 22:17 129 18.9
2014-Sep-18 22:12 071 18.9
2014-Sep-18 22:07 072 18.9
2014-Sep-18 22:02 046 1 gusting 4 18.9
2014-Sep-18 21:57 094 0 gusting 6 18.9
2014-Sep-18 21:52 092 1 gusting 4 18.9
2014-Sep-18 21:47 028 18.9
2014-Sep-18 21:42 084 18.9
2014-Sep-18 21:37 114 2 gusting 3 18.9
2014-Sep-18 21:32 045 1 gusting 4 18.9
2014-Sep-18 21:27 107 2 gusting 2 18.9
2014-Sep-18 21:22 157 0 gusting 5 18.9
2014-Sep-18 21:17 096 18.9
2014-Sep-18 21:12 070 18.9
2014-Sep-18 21:07 103 1 gusting 4 18.9
2014-Sep-18 21:02 346 18.9
2014-Sep-18 20:57 082 18.9
2014-Sep-18 20:52 083 18.9
2014-Sep-18 20:47 041 1 gusting 2 18.9
2014-Sep-18 20:42 121 1 gusting 4 18.9
2014-Sep-18 20:37 074 1 gusting 5 18.9
2014-Sep-18 20:32 078 18.9
2014-Sep-18 20:27 254 18.9
2014-Sep-18 20:22 254 18.9
2014-Sep-18 20:17 254 18.9
2014-Sep-18 20:12 253 18.9
2014-Sep-18 20:07 061 18.9
2014-Sep-18 20:02 048 0 gusting 0 19.4
2014-Sep-18 19:57 045 19.4
2014-Sep-18 19:52 101 1 gusting 4 19.4
2014-Sep-18 19:47 061 19.4
2014-Sep-18 19:42 085 19.4
2014-Sep-18 19:37 107 18.9
2014-Sep-18 19:32 121 18.9
2014-Sep-18 19:22 113 3 gusting 4 18.9
2014-Sep-18 19:17 089 18.9
2014-Sep-18 19:12 070 2 gusting 3 18.9
2014-Sep-18 19:07 064 18.9
2014-Sep-18 19:02 063 1 gusting 4 18.9
2014-Sep-18 18:57 067 0 gusting 3 18.9
2014-Sep-18 18:52 073 2 gusting 4 18.9
2014-Sep-18 18:47 078 1 gusting 4 18.9
2014-Sep-18 18:42 089 1 gusting 4 18.9
2014-Sep-18 18:37 098 2 gusting 6 18.9
2014-Sep-18 18:32 065 1 gusting 4 18.9
2014-Sep-18 18:27 063 1 gusting 4 18.9
2014-Sep-18 18:22 100 1 gusting 5 18.9
2014-Sep-18 18:13 070 0 gusting 6 18.9
2014-Sep-18 18:07 073 1 gusting 5 18.9
2014-Sep-18 18:02 087 2 gusting 5 18.9
2014-Sep-18 17:57 075 1 gusting 3 18.9
2014-Sep-18 17:52 069 2 gusting 4 18.9
2014-Sep-18 17:47 073 1 gusting 4 18.9
2014-Sep-18 17:42 088 1 gusting 3 18.9
2014-Sep-18 17:37 098 1 gusting 3 18.9
2014-Sep-18 17:32 064 2 gusting 5 18.9
2014-Sep-18 17:27 088 1 gusting 5 18.9
2014-Sep-18 17:22 076 2 gusting 3 19.4
2014-Sep-18 17:17 075 2 gusting 6 19.4
2014-Sep-18 17:12 064 19.4
2014-Sep-18 17:07 061 2 gusting 5 19.4
2014-Sep-18 17:02 071 2 gusting 3 19.4
2014-Sep-18 16:57 074 1 gusting 4 19.4
2014-Sep-18 16:52 067 0 gusting 3 19.4
2014-Sep-18 16:47 092 2 gusting 6 19.4
2014-Sep-18 16:42 083 19.4
2014-Sep-18 16:37 072 3 gusting 5 19.4
2014-Sep-18 16:32 098 19.4
2014-Sep-18 16:27 084 2 gusting 5 20.0
2014-Sep-18 16:22 118 2 gusting 4 20.0
2014-Sep-18 16:17 090 1 gusting 7 20.0
2014-Sep-18 16:12 075 2 gusting 7 20.0
2014-Sep-18 16:07 065 4 gusting 6 20.0
2014-Sep-18 16:02 076 4 gusting 9 20.0
2014-Sep-18 15:52 095 2 gusting 7 20.0
2014-Sep-18 15:47 091 2 gusting 8 20.0
2014-Sep-18 15:42 081 5 gusting 8 20.0
2014-Sep-18 15:37 074 4 gusting 6 20.6
2014-Sep-18 15:32 103 6 gusting 6 20.6
2014-Sep-18 15:27 119 21.1
2014-Sep-18 15:22 082 1 gusting 6 21.1
2014-Sep-18 15:17 071 1 gusting 6 20.6
2014-Sep-18 15:12 056 3 gusting 6 20.6
2014-Sep-18 15:07 067 20.6
2014-Sep-18 15:02 074 6 gusting 6 20.6
2014-Sep-18 14:57 090 5 gusting 6 20.6
2014-Sep-18 14:52 081 0 gusting 5 20.6
2014-Sep-18 14:47 067 4 gusting 8 20.6
2014-Sep-18 14:42 080 1 gusting 7 21.1
2014-Sep-18 14:37 057 4 gusting 6 21.1
2014-Sep-18 14:33 094 5 gusting 7 21.1
2014-Sep-18 14:27 055 6 gusting 7 21.1
2014-Sep-18 14:22 092 4 gusting 8 21.1
2014-Sep-18 14:17 088 2 gusting 7 21.1
2014-Sep-18 14:12 088 7 gusting 10 20.6
2014-Sep-18 14:07 078 8 gusting 8 20.6
2014-Sep-18 14:02 091 7 gusting 7 21.1
2014-Sep-18 13:57 101 6 gusting 8 21.1
2014-Sep-18 13:52 057 8 gusting 7 21.7
2014-Sep-18 13:47 065 6 gusting 8 21.1
2014-Sep-18 13:42 059 6 gusting 7 21.1
2014-Sep-18 13:37 069 6 gusting 9 21.1
2014-Sep-18 13:32 041 5 gusting 7 21.1
2014-Sep-18 13:27 048 6 gusting 9 21.1
2014-Sep-18 13:22 064 4 gusting 9 21.1
2014-Sep-18 13:17 069 3 gusting 9 20.6
2014-Sep-18 13:12 060 6 gusting 9 20.6
2014-Sep-18 13:07 070 4 gusting 9 20.6
2014-Sep-18 13:02 074 6 gusting 9 20.6
2014-Sep-18 12:57 066 4 gusting 9 20.6
2014-Sep-18 12:52 061 6 gusting 9 20.6
2014-Sep-18 12:47 078 6 gusting 11 20.6
2014-Sep-18 12:42 078 6 gusting 10 20.6
2014-Sep-18 12:37 057 3 gusting 8 20.6
2014-Sep-18 12:32 052 6 gusting 7 20.6
2014-Sep-18 12:27 057 6 gusting 7 20.0
2014-Sep-18 12:22 051 6 gusting 7 20.0
2014-Sep-18 12:17 096 6 gusting 7 20.6
2014-Sep-18 12:12 050 5 gusting 8 20.6
2014-Sep-18 12:07 082 5 gusting 7 20.6
2014-Sep-18 12:02 080 5 gusting 9 20.6
2014-Sep-18 11:57 041 6 gusting 8 20.6
2014-Sep-18 11:52 074 4 gusting 9 20.6
2014-Sep-18 11:47 080 5 gusting 10 20.6
2014-Sep-18 11:42 055 6 gusting 9 20.6
2014-Sep-18 11:37 078 6 gusting 9 21.1
2014-Sep-18 11:32 084 7 gusting 10 21.1
2014-Sep-18 11:27 090 9 gusting 11 21.7
2014-Sep-18 11:22 062 6 gusting 10 21.1
2014-Sep-18 11:17 079 6 gusting 11 21.1
2014-Sep-18 11:12 061 9 gusting 12 21.7
2014-Sep-18 11:07 052 7 gusting 9 21.7
2014-Sep-18 11:02 066 8 gusting 10 21.7
2014-Sep-18 10:57 065 6 gusting 9 21.1
2014-Sep-18 10:52 077 6 gusting 8 21.7
2014-Sep-18 10:47 059 6 gusting 9 21.7
2014-Sep-18 10:42 066 6 gusting 9 21.7
2014-Sep-18 10:37 086 7 gusting 9 21.7
2014-Sep-18 10:32 101 8 gusting 9 21.7
2014-Sep-18 10:27 059 7 gusting 11 21.7
2014-Sep-18 10:22 073 7 gusting 10 21.7
2014-Sep-18 10:17 101 6 gusting 10 21.7
2014-Sep-18 10:12 063 8 gusting 10 21.7
2014-Sep-18 10:07 082 5 gusting 9 21.7
2014-Sep-18 10:02 054 4 gusting 8 21.7